,,,PA_Meas_PMT16A,,PR_Meas_QMR101_102,,RH_Meas_QMH101,,SR_Meas_QMS101,,TA_Meas_QMH101,,GenWind,,GenWind,
date,time,status,PA,status,PR,status,RH,status,SR,status,TA,status,DirAvg,status,SpdAvg,
2011-12-15, 00:00:04,VALID,1002.17,VALID,0,VALID,93.3394,VALID,0,VALID,24.5388,VALID,346,VALID,0.838281,
2011-12-15, 00:01:04,VALID,1002.16,VALID,0,VALID,93.2097,VALID,0,VALID,24.6185,VALID,346,VALID,0.766797,
2011-12-15, 00:02:04,VALID,1002.16,VALID,0,VALID,92.9579,VALID,0,VALID,24.675,VALID,347,VALID,1.01445,
2011-12-15, 00:03:04,VALID,1002.13,VALID,0,VALID,92.5917,VALID,0,VALID,24.7724,VALID,343,VALID,0.95,
2011-12-15, 00:04:04,VALID,1002.11,VALID,0,VALID,91.9967,VALID,0,VALID,24.8892,VALID,341,VALID,1.11602,
2011-12-15, 00:05:04,VALID,1002.12,VALID,0,VALID,91.3864,VALID,0,VALID,24.9847,VALID,341,VALID,0.685156,
2011-12-15, 00:06:04,VALID,1002.15,VALID,0,VALID,91.0278,VALID,0,VALID,25.0839,VALID,341,VALID,0.485547,
2011-12-15, 00:07:04,VALID,1002.09,VALID,0,VALID,90.7608,VALID,0,VALID,25.1618,VALID,321,VALID,0.605078,
2011-12-15, 00:08:04,VALID,1002.1,VALID,0,VALID,90.3488,VALID,0,VALID,25.2202,VALID,342,VALID,0.399609,
2011-12-15, 00:09:04,VALID,1002.09,VALID,0,VALID,90.0208,VALID,0,VALID,25.2786,VALID,329,VALID,0.760156,
2011-12-15, 00:10:04,VALID,1002.08,VALID,0,VALID,89.7767,VALID,0.0815089,VALID,25.3176,VALID,341,VALID,0.507031,
2011-12-15, 00:11:04,VALID,1002.09,VALID,0,VALID,89.4868,VALID,0.0815089,VALID,25.3565,VALID,329,VALID,0.915234,
2011-12-15, 00:12:04,VALID,1002.12,VALID,0,VALID,89.3113,VALID,0,VALID,25.3955,VALID,342,VALID,0.479688,
2011-12-15, 00:13:04,VALID,1002.12,VALID,0,VALID,89.1206,VALID,0,VALID,25.3935,VALID,342,VALID,0.566016,
2011-12-15, 00:14:04,VALID,1002.13,VALID,0,VALID,89.0138,VALID,0,VALID,25.4344,VALID,346,VALID,0.507422,
2011-12-15, 00:15:04,VALID,1002.14,VALID,0,VALID,88.8765,VALID,0.0815089,VALID,25.4325,VALID,348,VALID,0.988672,
2011-12-15, 00:16:04,VALID,1002.13,VALID,0,VALID,88.6934,VALID,0,VALID,25.4734,VALID,348,VALID,0.917969,
2011-12-15, 00:17:04,VALID,1002.14,VALID,0,VALID,88.6857,VALID,0,VALID,25.452,VALID,346,VALID,0.800781,
2011-12-15, 00:18:04,VALID,1002.13,VALID,0,VALID,88.7391,VALID,0,VALID,25.4734,VALID,351,VALID,0.898438,
2011-12-15, 00:19:04,VALID,1002.13,VALID,0,VALID,88.7239,VALID,0.0815089,VALID,25.452,VALID,349,VALID,0.780859,
2011-12-15, 00:20:04,VALID,1002.14,VALID,0,VALID,88.7544,VALID,0.0815089,VALID,25.4325,VALID,345,VALID,0.852734,
2011-12-15, 00:21:04,VALID,1002.11,VALID,0,VALID,88.7849,VALID,0.0815089,VALID,25.4344,VALID,353,VALID,0.708594,
2011-12-15, 00:22:04,VALID,1002.11,VALID,0,VALID,88.8841,VALID,0,VALID,25.413,VALID,354,VALID,0.726563,
2011-12-15, 00:23:04,VALID,1002.1,VALID,0,VALID,88.8765,VALID,0,VALID,25.4344,VALID,352,VALID,0.945313,
2011-12-15, 00:24:04,VALID,1002.13,VALID,0,VALID,88.7697,VALID,0,VALID,25.4325,VALID,346,VALID,0.66875,
2011-12-15, 00:25:04,VALID,1002.1,VALID,0,VALID,88.6781,VALID,0.0815089,VALID,25.4928,VALID,345,VALID,0.243359,
2011-12-15, 00:26:04,VALID,1002.12,VALID,0,VALID,88.701,VALID,0,VALID,25.4714,VALID,345,VALID,0.546484,
2011-12-15, 00:27:04,VALID,1002.12,VALID,0,VALID,88.495,VALID,0,VALID,25.5318,VALID,343,VALID,0.730078,
2011-12-15, 00:28:04,VALID,1002.07,VALID,0,VALID,88.3348,VALID,0,VALID,25.5513,VALID,333,VALID,0.662109,
2011-12-15, 00:29:04,VALID,1002.11,VALID,0,VALID,88.2051,VALID,0,VALID,25.5902,VALID,338,VALID,0.267188,
2011-12-15, 00:30:04,VALID,1002.1,VALID,0,VALID,88.0754,VALID,0,VALID,25.5902,VALID,338,VALID,0.35625,
2011-12-15, 00:31:04,VALID,1002.11,VALID,0,VALID,88.1288,VALID,0.0815089,VALID,25.5707,VALID,327,VALID,0.146094,
2011-12-15, 00:32:04,VALID,1002.13,VALID,0,VALID,88.167,VALID,0,VALID,25.5493,VALID,332,VALID,0.457031,
2011-12-15, 00:33:04,VALID,1002.15,VALID,0,VALID,88.1288,VALID,0,VALID,25.5493,VALID,349,VALID,0.54375,
2011-12-15, 00:34:04,VALID,1002.15,VALID,0,VALID,88.1212,VALID,0.0815089,VALID,25.5493,VALID,349,VALID,0.481641,
2011-12-15, 00:35:04,VALID,1002.16,VALID,0,VALID,88.2204,VALID,0,VALID,25.5513,VALID,349,VALID,0.167187,
2011-12-15, 00:36:04,VALID,1002.16,VALID,0,VALID,88.3272,VALID,0,VALID,25.4928,VALID,349,VALID,0.220313,
2011-12-15, 00:37:04,VALID,1002.14,VALID,0,VALID,88.5713,VALID,0,VALID,25.4344,VALID,349,VALID,0.201172,
2011-12-15, 00:38:04,VALID,1002.1,VALID,0,VALID,88.8154,VALID,0,VALID,25.3955,VALID,349,VALID,0.230859,
2011-12-15, 00:39:04,VALID,1002.11,VALID,0,VALID,89.0138,VALID,0,VALID,25.376,VALID,349,VALID,0.188281,
2011-12-15, 00:40:04,VALID,1002.1,VALID,0,VALID,89.0977,VALID,0,VALID,25.3565,VALID,349,VALID,0,
2011-12-15, 00:41:04,VALID,1002.12,VALID,0,VALID,89.2808,VALID,0,VALID,25.3176,VALID,349,VALID,0,
2011-12-15, 00:42:04,VALID,1002.09,VALID,0,VALID,89.38,VALID,0.0815089,VALID,25.2786,VALID,349,VALID,0,
2011-12-15, 00:43:04,VALID,1002.14,VALID,0,VALID,89.5707,VALID,0,VALID,25.2592,VALID,349,VALID,0,
2011-12-15, 00:44:04,VALID,1002.12,VALID,0,VALID,89.7461,VALID,0,VALID,25.2221,VALID,349,VALID,0,
2011-12-15, 00:45:04,VALID,1002.1,VALID,0,VALID,89.8835,VALID,0,VALID,25.1618,VALID,349,VALID,0,
2011-12-15, 00:46:04,VALID,1002.09,VALID,0,VALID,90.0055,VALID,0,VALID,25.1442,VALID,349,VALID,0,
2011-12-15, 00:47:04,VALID,1002.1,VALID,0,VALID,90.181,VALID,0,VALID,25.1072,VALID,349,VALID,0,
2011-12-15, 00:48:04,VALID,1002.07,VALID,0,VALID,90.3793,VALID,0,VALID,25.0469,VALID,349,VALID,0,
2011-12-15, 00:49:04,VALID,1002.08,VALID,0,VALID,90.5396,VALID,0,VALID,25.0274,VALID,349,VALID,0,
2011-12-15, 00:50:04,VALID,1002.07,VALID,0,VALID,90.776,VALID,0,VALID,24.9885,VALID,349,VALID,0,
2011-12-15, 00:51:04,VALID,1002.06,VALID,0,VALID,90.9286,VALID,0,VALID,24.93,VALID,349,VALID,0,
2011-12-15, 00:52:04,VALID,1002.04,VALID,0,VALID,91.2872,VALID,0,VALID,24.93,VALID,349,VALID,0.4625,
2011-12-15, 00:53:04,VALID,1002,VALID,0,VALID,91.5313,VALID,0,VALID,24.8503,VALID,349,VALID,0.446094,
2011-12-15, 00:54:04,VALID,1001.99,VALID,0,VALID,91.7068,VALID,0,VALID,24.8327,VALID,349,VALID,0.265234,
2011-12-15, 00:55:04,VALID,1001.93,VALID,0,VALID,91.8975,VALID,0,VALID,24.7937,VALID,349,VALID,0.507422,
2011-12-15, 00:56:04,VALID,1001.96,VALID,0,VALID,92.0501,VALID,0,VALID,24.7335,VALID,349,VALID,0.334766,
2011-12-15, 00:57:04,VALID,1001.92,VALID,0,VALID,92.073,VALID,0,VALID,24.7159,VALID,349,VALID,0.0984375,
2011-12-15, 00:58:04,VALID,1001.91,VALID,0,VALID,92.1798,VALID,0,VALID,24.6769,VALID,349,VALID,0,
2011-12-15, 00:59:04,VALID,1001.91,VALID,0,VALID,92.3018,VALID,0,VALID,24.6556,VALID,349,VALID,0.00351562,
2011-12-15, 01:00:04,VALID,1001.88,VALID,0,VALID,92.4163,VALID,0,VALID,24.6361,VALID,349,VALID,0,
2011-12-15, 01:01:04,VALID,1001.9,VALID,0,VALID,92.6604,VALID,0,VALID,24.6361,VALID,349,VALID,0,
2011-12-15, 01:02:04,VALID,1001.87,VALID,0,VALID,92.6604,VALID,0.0815089,VALID,24.6361,VALID,349,VALID,0.285547,
2011-12-15, 01:03:04,VALID,1001.85,VALID,0,VALID,92.668,VALID,0.0815089,VALID,24.6166,VALID,349,VALID,0.283984,
2011-12-15, 01:04:04,VALID,1001.84,VALID,0,VALID,92.8816,VALID,0.0815089,VALID,24.6342,VALID,349,VALID,0.372656,
2011-12-15, 01:05:04,VALID,1001.84,VALID,0,VALID,93.08,VALID,0,VALID,24.6556,VALID,349,VALID,0.325391,
2011-12-15, 01:06:04,VALID,1001.81,VALID,0,VALID,92.9121,VALID,0.0815089,VALID,24.6945,VALID,349,VALID,0.332812,
2011-12-15, 01:07:04,VALID,1001.81,VALID,0,VALID,92.8969,VALID,0,VALID,24.675,VALID,349,VALID,0.173047,
2011-12-15, 01:08:04,VALID,1001.78,VALID,0,VALID,92.8053,VALID,0,VALID,24.675,VALID,349,VALID,0.253516,
2011-12-15, 01:09:04,VALID,1001.76,VALID,0,VALID,92.8587,VALID,0,VALID,24.6732,VALID,349,VALID,0,
2011-12-15, 01:10:04,VALID,1001.77,VALID,0,VALID,92.7977,VALID,0.0815089,VALID,24.714,VALID,350,VALID,0.404687,
2011-12-15, 01:11:04,VALID,1001.77,VALID,0,VALID,92.9732,VALID,0,VALID,24.7335,VALID,350,VALID,0.196094,
2011-12-15, 01:12:04,VALID,1001.74,VALID,0,VALID,93.1944,VALID,0.0815089,VALID,24.7919,VALID,343,VALID,0.434375,
2011-12-15, 01:13:04,VALID,1001.74,VALID,0,VALID,92.9503,VALID,0,VALID,24.8308,VALID,343,VALID,0.384375,
2011-12-15, 01:14:04,VALID,1001.73,VALID,0,VALID,92.6909,VALID,0,VALID,24.8697,VALID,343,VALID,0.291797,
2011-12-15, 01:15:04,VALID,1001.73,VALID,0,VALID,92.5383,VALID,0,VALID,24.8697,VALID,343,VALID,0.106641,
2011-12-15, 01:16:04,VALID,1001.77,VALID,0,VALID,92.6146,VALID,0,VALID,24.8892,VALID,343,VALID,0,
2011-12-15, 01:17:04,VALID,1001.74,VALID,0,VALID,92.6222,VALID,0.0815089,VALID,24.8892,VALID,343,VALID,0.00078125,
2011-12-15, 01:18:04,VALID,1001.74,VALID,0,VALID,92.6299,VALID,0,VALID,24.9495,VALID,343,VALID,0.163672,
2011-12-15, 01:19:04,VALID,1001.76,VALID,0,VALID,92.4239,VALID,0.0815089,VALID,24.9282,VALID,343,VALID,0.298047,
2011-12-15, 01:20:04,VALID,1001.76,VALID,0,VALID,92.2866,VALID,0,VALID,24.9282,VALID,343,VALID,0.35,
2011-12-15, 01:21:04,VALID,1001.73,VALID,0,VALID,92.2942,VALID,0,VALID,24.9495,VALID,343,VALID,0.324219,
2011-12-15, 01:22:04,VALID,1001.73,VALID,0,VALID,92.3171,VALID,0,VALID,24.9476,VALID,343,VALID,0.394922,
2011-12-15, 01:23:04,VALID,1001.7,VALID,0,VALID,92.2332,VALID,0,VALID,24.9087,VALID,343,VALID,0.272266,
2011-12-15, 01:24:04,VALID,1001.72,VALID,0,VALID,92.3018,VALID,0,VALID,24.8892,VALID,343,VALID,0.292188,
2011-12-15, 01:25:04,VALID,1001.71,VALID,0,VALID,92.3705,VALID,0,VALID,24.8911,VALID,343,VALID,0.340234,
2011-12-15, 01:26:04,VALID,1001.71,VALID,0,VALID,92.5231,VALID,0,VALID,24.8716,VALID,343,VALID,0.179688,
2011-12-15, 01:27:04,VALID,1001.71,VALID,0,VALID,92.5841,VALID,0,VALID,24.8113,VALID,343,VALID,0.229687,
2011-12-15, 01:28:04,VALID,1001.72,VALID,0,VALID,92.7519,VALID,0,VALID,24.8327,VALID,343,VALID,0.35,
2011-12-15, 01:29:04,VALID,1001.71,VALID,0,VALID,92.729,VALID,0,VALID,24.7919,VALID,343,VALID,0.330859,
2011-12-15, 01:30:04,VALID,1001.65,VALID,0,VALID,92.6528,VALID,0,VALID,24.7724,VALID,343,VALID,0.388672,
2011-12-15, 01:31:04,VALID,1001.63,VALID,0,VALID,92.7824,VALID,0,VALID,24.7937,VALID,344,VALID,0.578516,
2011-12-15, 01:32:04,VALID,1001.6,VALID,0,VALID,92.7596,VALID,0,VALID,24.7335,VALID,344,VALID,0.464063,
2011-12-15, 01:33:04,VALID,1001.59,VALID,0,VALID,92.7138,VALID,0,VALID,24.714,VALID,344,VALID,0.514844,
2011-12-15, 01:34:04,VALID,1001.57,VALID,0,VALID,92.7443,VALID,0,VALID,24.6556,VALID,344,VALID,0.58125,
2011-12-15, 01:35:04,VALID,1001.52,VALID,0,VALID,92.8664,VALID,0,VALID,24.6361,VALID,344,VALID,0.337891,
2011-12-15, 01:36:04,VALID,1001.49,VALID,0,VALID,93.1181,VALID,0,VALID,24.5972,VALID,344,VALID,0.372266,
2011-12-15, 01:37:04,VALID,1001.46,VALID,0,VALID,93.2631,VALID,0,VALID,24.5972,VALID,344,VALID,0.339063,
2011-12-15, 01:38:04,VALID,1001.45,VALID,0,VALID,93.3012,VALID,0,VALID,24.5777,VALID,344,VALID,0.332812,
2011-12-15, 01:39:04,VALID,1001.41,VALID,0,VALID,93.3546,VALID,0,VALID,24.5777,VALID,344,VALID,0.269922,
2011-12-15, 01:40:04,VALID,1001.37,VALID,0,VALID,93.3928,VALID,0,VALID,24.5582,VALID,344,VALID,0.3625,
2011-12-15, 01:41:04,VALID,1001.36,VALID,0,VALID,93.553,VALID,0,VALID,24.5582,VALID,344,VALID,0.404297,
2011-12-15, 01:42:04,VALID,1001.28,VALID,0,VALID,93.6598,VALID,0,VALID,24.599,VALID,344,VALID,0.637109,
2011-12-15, 01:43:04,VALID,1001.28,VALID,0,VALID,93.6064,VALID,0,VALID,24.599,VALID,344,VALID,0.571094,
2011-12-15, 01:44:04,VALID,1001.21,VALID,0,VALID,93.5987,VALID,0,VALID,24.5582,VALID,344,VALID,0.499609,
2011-12-15, 01:45:04,VALID,1001.18,VALID,0,VALID,93.6445,VALID,0,VALID,24.5582,VALID,344,VALID,0.403516,
2011-12-15, 01:46:04,VALID,1001.16,VALID,0,VALID,93.6521,VALID,0,VALID,24.5601,VALID,344,VALID,0.410547,
2011-12-15, 01:47:04,VALID,1001.16,VALID,0,VALID,93.9268,VALID,0,VALID,24.5796,VALID,344,VALID,0.459766,
2011-12-15, 01:48:04,VALID,1001.12,VALID,0,VALID,93.7971,VALID,0.0815089,VALID,24.5582,VALID,344,VALID,0.376953,
2011-12-15, 01:49:04,VALID,1001.14,VALID,0,VALID,93.6064,VALID,0,VALID,24.5388,VALID,344,VALID,0.426172,
2011-12-15, 01:50:04,VALID,1001.13,VALID,0,VALID,93.6445,VALID,0,VALID,24.4998,VALID,344,VALID,0.295703,
2011-12-15, 01:51:04,VALID,1001.13,VALID,0,VALID,93.7513,VALID,0,VALID,24.5193,VALID,344,VALID,0.3,
2011-12-15, 01:52:04,VALID,1001.13,VALID,0,VALID,93.7818,VALID,0.0815089,VALID,24.5193,VALID,344,VALID,0.291797,
2011-12-15, 01:53:04,VALID,1001.13,VALID,0,VALID,93.7208,VALID,0.0815089,VALID,24.4998,VALID,344,VALID,0,
2011-12-15, 01:54:04,VALID,1001.12,VALID,0,VALID,93.8657,VALID,0,VALID,24.5212,VALID,344,VALID,0,
2011-12-15, 01:55:04,VALID,1001.08,VALID,0,VALID,93.7666,VALID,0.0815089,VALID,24.4998,VALID,344,VALID,0,
2011-12-15, 01:56:04,VALID,1001.11,VALID,0,VALID,93.8581,VALID,0,VALID,24.4804,VALID,344,VALID,0,
2011-12-15, 01:57:04,VALID,1001.11,VALID,0,VALID,93.9344,VALID,0,VALID,24.4998,VALID,344,VALID,0.280078,
2011-12-15, 01:58:04,VALID,1001.05,VALID,0,VALID,93.9115,VALID,0,VALID,24.4998,VALID,344,VALID,0.387891,
2011-12-15, 01:59:04,VALID,1001.05,VALID,0,VALID,93.8657,VALID,0,VALID,24.4998,VALID,344,VALID,0.295312,
2011-12-15, 02:00:04,VALID,1001.03,VALID,0,VALID,93.9573,VALID,0.0815089,VALID,24.498,VALID,344,VALID,0.494922,
2011-12-15, 02:01:04,VALID,1001.04,VALID,0,VALID,93.9954,VALID,0,VALID,24.498,VALID,344,VALID,0.45,
2011-12-15, 02:02:04,VALID,1001.01,VALID,0,VALID,94.0031,VALID,0,VALID,24.498,VALID,344,VALID,0.525781,
2011-12-15, 02:03:04,VALID,1001,VALID,0,VALID,93.9573,VALID,0,VALID,24.5193,VALID,2,VALID,0.570313,
2011-12-15, 02:04:04,VALID,1000.98,VALID,0,VALID,93.9039,VALID,0,VALID,24.5193,VALID,2,VALID,0.428906,
2011-12-15, 02:05:04,VALID,1000.92,VALID,0,VALID,93.9268,VALID,0,VALID,24.4998,VALID,2,VALID,0.327734,
2011-12-15, 02:06:04,VALID,1000.94,VALID,0,VALID,94.0259,VALID,0,VALID,24.498,VALID,2,VALID,0.436719,
2011-12-15, 02:07:04,VALID,1000.92,VALID,0,VALID,94.0412,VALID,0,VALID,24.5388,VALID,2,VALID,0.451172,
2011-12-15, 02:08:04,VALID,1000.94,VALID,0,VALID,93.9115,VALID,0,VALID,24.5388,VALID,1,VALID,0.482422,
2011-12-15, 02:09:04,VALID,1000.91,VALID,0,VALID,93.7437,VALID,0,VALID,24.5388,VALID,1,VALID,0.408984,
2011-12-15, 02:10:04,VALID,1000.94,VALID,0,VALID,93.5377,VALID,0,VALID,24.5193,VALID,1,VALID,0.571094,
2011-12-15, 02:11:04,VALID,1000.9,VALID,0,VALID,93.6292,VALID,0,VALID,24.5193,VALID,1,VALID,0.417578,
2011-12-15, 02:12:04,VALID,1000.91,VALID,0,VALID,93.5682,VALID,0,VALID,24.4998,VALID,1,VALID,0.383984,
2011-12-15, 02:13:04,VALID,1000.89,VALID,0,VALID,93.5606,VALID,0,VALID,24.4804,VALID,1,VALID,0.300781,
2011-12-15, 02:14:04,VALID,1000.88,VALID,0,VALID,93.5835,VALID,0,VALID,24.4628,VALID,1,VALID,0.355078,
2011-12-15, 02:15:04,VALID,1000.85,VALID,0,VALID,93.6369,VALID,0,VALID,24.4628,VALID,1,VALID,0.223438,
2011-12-15, 02:16:04,VALID,1000.84,VALID,0,VALID,93.675,VALID,0,VALID,24.4628,VALID,1,VALID,0.329688,
2011-12-15, 02:17:04,VALID,1000.83,VALID,0,VALID,93.6216,VALID,0,VALID,24.4628,VALID,1,VALID,0.499219,
2011-12-15, 02:18:04,VALID,1000.81,VALID,0,VALID,93.614,VALID,0,VALID,24.4396,VALID,1,VALID,0.555078,
2011-12-15, 02:19:04,VALID,1000.79,VALID,0,VALID,93.469,VALID,0,VALID,24.4804,VALID,356,VALID,0.612109,
2011-12-15, 02:20:04,VALID,1000.77,VALID,0,VALID,93.2402,VALID,0,VALID,24.5193,VALID,355,VALID,0.616016,
2011-12-15, 02:21:04,VALID,1000.79,VALID,0,VALID,92.8892,VALID,0.0815089,VALID,24.5193,VALID,355,VALID,0.847266,
2011-12-15, 02:22:04,VALID,1000.76,VALID,0,VALID,92.7519,VALID,0.0815089,VALID,24.5193,VALID,355,VALID,0.792188,
2011-12-15, 02:23:04,VALID,1000.71,VALID,0,VALID,92.8053,VALID,0,VALID,24.498,VALID,356,VALID,0.678906,
2011-12-15, 02:24:04,VALID,1000.7,VALID,0,VALID,92.5993,VALID,0.0815089,VALID,24.4785,VALID,356,VALID,0.673047,
2011-12-15, 02:25:04,VALID,1000.67,VALID,0,VALID,92.6833,VALID,0,VALID,24.4998,VALID,356,VALID,0.565625,
2011-12-15, 02:26:04,VALID,1000.64,VALID,0,VALID,92.7443,VALID,0,VALID,24.4998,VALID,356,VALID,0.441016,
2011-12-15, 02:27:04,VALID,1000.61,VALID,0,VALID,92.6985,VALID,0,VALID,24.4998,VALID,356,VALID,0.510156,
2011-12-15, 02:28:04,VALID,1000.61,VALID,0,VALID,92.6756,VALID,0,VALID,24.4998,VALID,356,VALID,0.541406,
2011-12-15, 02:29:04,VALID,1000.56,VALID,0,VALID,92.7596,VALID,0,VALID,24.5193,VALID,355,VALID,0.447656,
2011-12-15, 02:30:04,VALID,1000.57,VALID,0,VALID,92.7519,VALID,0.0815089,VALID,24.5388,VALID,355,VALID,0.466016,
2011-12-15, 02:31:04,VALID,1000.56,VALID,0,VALID,92.5612,VALID,0.0815089,VALID,24.5582,VALID,350,VALID,0.287109,
2011-12-15, 02:32:04,VALID,1000.56,VALID,0,VALID,92.4163,VALID,0.0815089,VALID,24.5758,VALID,347,VALID,0.575,
2011-12-15, 02:33:04,VALID,1000.58,VALID,0,VALID,92.2332,VALID,0,VALID,24.5972,VALID,345,VALID,0.353516,
2011-12-15, 02:34:04,VALID,1000.59,VALID,0,VALID,92.0806,VALID,0,VALID,24.6166,VALID,345,VALID,0.432813,
2011-12-15, 02:35:04,VALID,1000.6,VALID,0,VALID,92.0501,VALID,0.0815089,VALID,24.5953,VALID,344,VALID,0.555859,
2011-12-15, 02:36:04,VALID,1000.6,VALID,0,VALID,91.9356,VALID,0.0815089,VALID,24.6361,VALID,344,VALID,0.557422,
2011-12-15, 02:37:04,VALID,1000.6,VALID,0,VALID,91.8746,VALID,0.0815089,VALID,24.6166,VALID,344,VALID,0.489062,
2011-12-15, 02:38:04,VALID,1000.6,VALID,0,VALID,91.9509,VALID,0.0815089,VALID,24.5758,VALID,344,VALID,0.575391,
2011-12-15, 02:39:04,VALID,1000.61,VALID,0,VALID,91.8746,VALID,0.0815089,VALID,24.5972,VALID,339,VALID,0.736719,
2011-12-15, 02:40:04,VALID,1000.6,VALID,0,VALID,91.9204,VALID,0,VALID,24.5953,VALID,346,VALID,0.806641,
2011-12-15, 02:41:04,VALID,1000.61,VALID,0,VALID,91.5771,VALID,0,VALID,24.6556,VALID,345,VALID,0.582812,
2011-12-15, 02:42:04,VALID,1000.63,VALID,0,VALID,91.4779,VALID,0.0815089,VALID,24.6342,VALID,345,VALID,0.689453,
2011-12-15, 02:43:04,VALID,1000.58,VALID,0,VALID,91.3864,VALID,0.0815089,VALID,24.6342,VALID,343,VALID,0.592578,
2011-12-15, 02:44:04,VALID,1000.56,VALID,0,VALID,91.249,VALID,0,VALID,24.6769,VALID,340,VALID,0.395312,
2011-12-15, 02:45:04,VALID,1000.6,VALID,0,VALID,91.2109,VALID,0.0815089,VALID,24.6732,VALID,340,VALID,0.563281,
2011-12-15, 02:46:04,VALID,1000.57,VALID,0,VALID,91.3024,VALID,0.0815089,VALID,24.6945,VALID,340,VALID,0.573828,
2011-12-15, 02:47:04,VALID,1000.58,VALID,0,VALID,91.1499,VALID,0.0815089,VALID,24.714,VALID,340,VALID,0.428516,
2011-12-15, 02:48:04,VALID,1000.61,VALID,0,VALID,91.1499,VALID,0,VALID,24.714,VALID,340,VALID,0.516406,
2011-12-15, 02:49:04,VALID,1000.63,VALID,0,VALID,91.1956,VALID,0.0815089,VALID,24.6945,VALID,340,VALID,0.510547,
2011-12-15, 02:50:04,VALID,1000.64,VALID,0,VALID,91.3558,VALID,0.0815089,VALID,24.675,VALID,341,VALID,0.735156,
2011-12-15, 02:51:04,VALID,1000.63,VALID,0,VALID,91.2948,VALID,0.0815089,VALID,24.6732,VALID,340,VALID,0.433594,
2011-12-15, 02:52:04,VALID,1000.65,VALID,0,VALID,91.1041,VALID,0,VALID,24.6926,VALID,340,VALID,0.438281,
2011-12-15, 02:53:04,VALID,1000.67,VALID,0,VALID,91.0507,VALID,0.0815089,VALID,24.7335,VALID,340,VALID,0.476563,
2011-12-15, 02:54:04,VALID,1000.64,VALID,0,VALID,91.0812,VALID,0.0815089,VALID,24.714,VALID,340,VALID,0.578516,
2011-12-15, 02:55:04,VALID,1000.61,VALID,0,VALID,91.1804,VALID,0,VALID,24.6945,VALID,341,VALID,0.399609,
2011-12-15, 02:56:04,VALID,1000.61,VALID,0,VALID,91.2414,VALID,0.0815089,VALID,24.6537,VALID,341,VALID,0.362109,
2011-12-15, 02:57:04,VALID,1000.62,VALID,0,VALID,91.2643,VALID,0,VALID,24.6148,VALID,341,VALID,0.433203,
2011-12-15, 02:58:04,VALID,1000.59,VALID,0,VALID,91.3024,VALID,0.0815089,VALID,24.6166,VALID,351,VALID,0.680469,
2011-12-15, 02:59:04,VALID,1000.6,VALID,0,VALID,91.2796,VALID,0,VALID,24.5972,VALID,357,VALID,0.696484,
2011-12-15, 03:00:04,VALID,1000.59,VALID,0,VALID,91.1499,VALID,0.0815089,VALID,24.6166,VALID,358,VALID,0.595703,
2011-12-15, 03:01:04,VALID,1000.59,VALID,0,VALID,90.9973,VALID,0,VALID,24.5777,VALID,357,VALID,0.476172,
2011-12-15, 03:02:04,VALID,1000.58,VALID,0,VALID,90.8829,VALID,0.0815089,VALID,24.5564,VALID,357,VALID,0.369141,
2011-12-15, 03:03:04,VALID,1000.57,VALID,0,VALID,90.7608,VALID,0,VALID,24.5564,VALID,331,VALID,0.64375,
2011-12-15, 03:04:04,VALID,1000.55,VALID,0,VALID,90.593,VALID,0,VALID,24.5777,VALID,333,VALID,0.805469,
2011-12-15, 03:05:04,VALID,1000.53,VALID,0,VALID,90.0132,VALID,0.0815089,VALID,24.6361,VALID,12,VALID,0.713672,
2011-12-15, 03:06:04,VALID,1000.48,VALID,0,VALID,89.5631,VALID,0,VALID,24.714,VALID,355,VALID,0.79375,
2011-12-15, 03:07:04,VALID,1000.44,VALID,0,VALID,88.2433,VALID,0,VALID,24.7529,VALID,3,VALID,1.35664,
2011-12-15, 03:08:04,VALID,1000.49,VALID,0,VALID,87.2515,VALID,0,VALID,24.9476,VALID,340,VALID,0.783594,
2011-12-15, 03:09:04,VALID,1000.47,VALID,0,VALID,86.4352,VALID,0.0815089,VALID,25.0644,VALID,347,VALID,1.25078,
2011-12-15, 03:10:04,VALID,1000.47,VALID,0,VALID,86.0156,VALID,0,VALID,25.1618,VALID,359,VALID,1.21328,
2011-12-15, 03:11:04,VALID,1000.48,VALID,0,VALID,85.0544,VALID,0,VALID,25.2767,VALID,353,VALID,1.23086,
2011-12-15, 03:12:04,VALID,1000.51,VALID,0,VALID,84.4364,VALID,0,VALID,25.4149,VALID,344,VALID,0.594531,
2011-12-15, 03:13:04,VALID,1000.57,VALID,0,VALID,84.261,VALID,0,VALID,25.4539,VALID,344,VALID,0.540625,
2011-12-15, 03:14:04,VALID,1000.59,VALID,0,VALID,84.3144,VALID,0,VALID,25.4734,VALID,348,VALID,0.623828,
2011-12-15, 03:15:04,VALID,1000.65,VALID,0,VALID,84.4593,VALID,0,VALID,25.4928,VALID,347,VALID,0.480078,
2011-12-15, 03:16:04,VALID,1000.67,VALID,0,VALID,84.1237,VALID,0,VALID,25.5123,VALID,348,VALID,0.628125,
2011-12-15, 03:17:04,VALID,1000.7,VALID,0,VALID,83.8872,VALID,0,VALID,25.5318,VALID,355,VALID,0.248828,
2011-12-15, 03:18:04,VALID,1000.73,VALID,0,VALID,83.582,VALID,0,VALID,25.5318,VALID,9,VALID,0.699609,
2011-12-15, 03:19:04,VALID,1000.72,VALID,0,VALID,83.5515,VALID,0.0815089,VALID,25.5513,VALID,5,VALID,0.556641,
2011-12-15, 03:20:04,VALID,1000.75,VALID,0,VALID,83.4065,VALID,0,VALID,25.5707,VALID,358,VALID,0.495313,
2011-12-15, 03:21:04,VALID,1000.75,VALID,0,VALID,83.5286,VALID,0,VALID,25.5707,VALID,304,VALID,0.204297,
2011-12-15, 03:22:04,VALID,1000.73,VALID,0,VALID,83.6202,VALID,0,VALID,25.5707,VALID,304,VALID,0.0242187,
2011-12-15, 03:23:04,VALID,1000.71,VALID,0,VALID,83.6507,VALID,0,VALID,25.5318,VALID,304,VALID,0.0015625,
2011-12-15, 03:24:04,VALID,1000.73,VALID,0,VALID,83.6964,VALID,0,VALID,25.5318,VALID,304,VALID,0,
2011-12-15, 03:25:04,VALID,1000.75,VALID,0,VALID,83.7117,VALID,0,VALID,25.5123,VALID,302,VALID,0.484375,
2011-12-15, 03:26:04,VALID,1000.78,VALID,0,VALID,83.7804,VALID,0.0815089,VALID,25.4909,VALID,284,VALID,0.408984,
2011-12-15, 03:27:04,VALID,1000.82,VALID,0,VALID,84.1542,VALID,0.0815089,VALID,25.4928,VALID,284,VALID,0,
2011-12-15, 03:28:04,VALID,1000.85,VALID,0,VALID,84.6119,VALID,0,VALID,25.4928,VALID,284,VALID,0,
2011-12-15, 03:29:04,VALID,1000.91,VALID,0,VALID,84.7416,VALID,0,VALID,25.4753,VALID,284,VALID,0,
2011-12-15, 03:30:04,VALID,1000.93,VALID,0,VALID,85.1154,VALID,0,VALID,25.4363,VALID,284,VALID,0,
2011-12-15, 03:31:04,VALID,1000.99,VALID,0,VALID,85.4816,VALID,0,VALID,25.3779,VALID,284,VALID,0,
2011-12-15, 03:32:04,VALID,1001.04,VALID,0,VALID,85.9241,VALID,0,VALID,25.3176,VALID,284,VALID,0.00585938,
2011-12-15, 03:33:04,VALID,1001.06,VALID,0,VALID,86.3208,VALID,0,VALID,25.3,VALID,284,VALID,0,
2011-12-15, 03:34:04,VALID,1001.07,VALID,0,VALID,86.5573,VALID,0,VALID,25.2611,VALID,282,VALID,0,
2011-12-15, 03:35:04,VALID,1001.12,VALID,0,VALID,87.2134,VALID,0,VALID,25.2416,VALID,280,VALID,0.298438,
2011-12-15, 03:36:04,VALID,1001.14,VALID,0,VALID,87.3354,VALID,0,VALID,25.2435,VALID,236,VALID,1.02891,
2011-12-15, 03:37:04,VALID,1001.28,VALID,0,VALID,88.1136,VALID,0,VALID,25.1637,VALID,225,VALID,1.82617,
2011-12-15, 03:38:04,VALID,1001.39,VALID,0,VALID,88.907,VALID,0,VALID,25.0663,VALID,214,VALID,1.48477,
2011-12-15, 03:39:04,VALID,1001.4,VALID,0,VALID,89.3571,VALID,0,VALID,24.969,VALID,227,VALID,0.434766,
2011-12-15, 03:40:04,VALID,1001.36,VALID,0,VALID,89.7461,VALID,0,VALID,24.9282,VALID,313,VALID,0.4375,
2011-12-15, 03:41:04,VALID,1001.41,VALID,0,VALID,88.8536,VALID,0,VALID,24.93,VALID,247,VALID,0.737109,
2011-12-15, 03:42:04,VALID,1001.39,VALID,0,VALID,88.9985,VALID,0,VALID,24.9087,VALID,98,VALID,0.502344,
2011-12-15, 03:43:04,VALID,1001.4,VALID,0,VALID,85.596,VALID,0,VALID,24.93,VALID,170,VALID,1.50664,